Charlotte, NC

3:46 AM EST on February 24, 2017 (GMT -0500)
Charlotte-Douglas International

Weather History for KCLT - December, 2013

Change the Weather History Date:

Saturday, December 14, 2013

  Actual Average Record
Temperature  
Mean Temperature 44 °F 42 °F  
Max Temperature 49 °F 53 °F 73 °F (1948)
Min Temperature 39 °F 32 °F 12 °F (1962)
Degree Days  
Heating Degree Days 21 23  
Month to date heating degree days 246 293  
Since 1 July heating degree days 896 929  
Cooling Degree Days 0 0  
Month to date cooling degree days 6 0  
Year to date cooling degree days 1583 1517  
Moisture  
Dew Point 37 °F    
Average Humidity 75    
Maximum Humidity 100    
Minimum Humidity 49    
Precipitation  
Precipitation 0.99 in 0.10 in 2.38 in (1879)
Month to date precipitation 1.92 1.49  
Year to date precipitation 44.41 39.87  
Snow  
Snow 0.00 in 0.00 in 2.90 in (1958)
Month to date snowfall 0.0 0.0  
Since 1 July snowfall T 0.1  
Snow Depth 0.00 in    
Sea Level Pressure  
Sea Level Pressure 30.01 in    
Wind  
Wind Speed 6 mph (NNE)    
Max Wind Speed 20 mph    
Max Gust Speed 28 mph    
Visibility 6 miles    
Events Rain    
T = Trace of Precipitation, MM = Missing Value Source: NWS Daily Summary

Daily Weather History Graph

Daily Weather History Graph

Search for Another Location

Airport or City:

Trip Planner

Search our weather history database for the weather conditions in past years. The results will help you decide how hot, cold, wet, or windy it might be!

Date:

Astronomy

Dec. 14, 2013 Rise Set
Actual Time 7:24 AM EST 5:12 PM EST
Civil Twilight 6:56 AM EST 5:40 PM EST
Nautical Twilight 6:24 AM EST 6:12 PM EST
Astronomical Twilight 5:53 AM EST 6:43 PM EST
Moon 3:30 PM EST (12/14) 4:47 AM EST (12/14)
Length of Visible Light 10h 44m
Length of Day
9h 48m
Waxing Gibbous, 93% of the Moon is Illuminated
Dec 14
Waxing Gibbous
Dec 17
Full
Dec 25
Last Quarter
Jan 1
New
Jan 7
First Quarter

Hourly Weather History & Observations

Time (EST) Temp. Windchill Dew Point Humidity Pressure Visibility Wind Dir Wind Speed Gust Speed Precip Events Conditions
12:52 AM 42.1 °F - 28.0 °F 58% 30.26 in 10.0 mi Calm Calm - N/A   Overcast
1:52 AM 44.1 °F 40.8 °F 27.0 °F 51% 30.24 in 10.0 mi ESE 5.8 mph - N/A   Overcast
2:52 AM 44.1 °F - 27.0 °F 51% 30.25 in 10.0 mi Calm Calm - N/A   Overcast
3:52 AM 44.1 °F 41.5 °F 26.1 °F 49% 30.23 in 10.0 mi East 4.6 mph - N/A   Overcast
4:52 AM 45.0 °F - 26.1 °F 48% 30.20 in 10.0 mi Calm Calm - N/A   Overcast
5:52 AM 45.0 °F - 28.0 °F 52% 30.20 in 10.0 mi Calm Calm - N/A   Overcast
6:13 AM 44.6 °F 40.7 °F 28.4 °F 53% 30.17 in 10.0 mi ESE 6.9 mph - N/A   Overcast
6:52 AM 43.0 °F 40.3 °F 33.1 °F 68% 30.20 in 10.0 mi SE 4.6 mph - 0.01 in Rain Light Rain
7:52 AM 43.0 °F 40.3 °F 33.1 °F 68% 30.19 in 10.0 mi East 4.6 mph - 0.00 in   Overcast
8:52 AM 44.1 °F 39.0 °F 35.1 °F 71% 30.16 in 9.0 mi ESE 9.2 mph - 0.00 in Rain Light Rain
9:52 AM 46.0 °F 39.9 °F 37.9 °F 73% 30.12 in 10.0 mi ESE 13.8 mph - 0.01 in   Overcast
10:52 AM 48.0 °F - 39.0 °F 71% 30.05 in 10.0 mi ESE 16.1 mph 27.6 mph N/A   Overcast
11:52 AM 48.9 °F - 43.0 °F 80% 30.01 in 8.0 mi Variable 6.9 mph - 0.00 in Rain Light Rain
12:14 PM 48.2 °F - 44.6 °F 87% 29.97 in 6.0 mi ENE 5.8 mph - 0.03 in Rain Light Rain
12:52 PM 46.9 °F - 45.0 °F 93% 29.94 in 4.0 mi NE 8.1 mph - 0.07 in Rain Rain
1:13 PM 46.4 °F 42.4 °F 44.6 °F 93% 29.91 in 1.8 mi NE 8.1 mph - 0.07 in Rain Heavy Rain
1:52 PM 45.0 °F 38.9 °F 44.1 °F 97% 29.91 in 1.5 mi NNW 12.7 mph - 0.31 in Rain Heavy Rain
2:31 PM 39.2 °F 30.8 °F 39.2 °F 100% 29.92 in 2.0 mi NNW 15.0 mph - 0.38 in Rain Heavy Rain
2:52 PM 39.9 °F 32.5 °F 39.0 °F 97% 29.93 in 2.0 mi North 12.7 mph 20.7 mph 0.49 in Rain Heavy Rain
3:38 PM 39.2 °F 34.2 °F 39.2 °F 100% 29.90 in 2.0 mi NE 6.9 mph - 0.09 in Rain Light Rain
3:52 PM 41.0 °F 36.4 °F 39.9 °F 96% 29.90 in 2.0 mi North 6.9 mph - 0.09 in Rain Light Rain
4:25 PM 41.0 °F 37.1 °F 39.2 °F 93% 29.89 in 2.0 mi North 5.8 mph - 0.01 in   Overcast
4:52 PM 39.9 °F 33.9 °F 39.0 °F 97% 29.90 in 2.0 mi North 9.2 mph - 0.01 in   Overcast
4:56 PM 39.2 °F 32.5 °F 39.2 °F 100% 29.90 in 8.0 mi North 10.4 mph - N/A   Overcast
5:52 PM 39.9 °F 35.8 °F 39.0 °F 97% 29.91 in 7.0 mi North 5.8 mph - N/A   Overcast
6:52 PM 39.9 °F 34.5 °F 39.0 °F 97% 29.89 in 7.0 mi North 8.1 mph - N/A   Overcast
7:52 PM 39.0 °F 33.4 °F 37.9 °F 96% 29.86 in 6.0 mi North 8.1 mph - N/A   Overcast
8:52 PM 39.0 °F 35.7 °F 37.9 °F 96% 29.88 in 7.0 mi NNW 4.6 mph - N/A   Overcast
9:52 PM 39.0 °F 35.7 °F 39.0 °F 100% 29.85 in 5.0 mi NNW 4.6 mph - N/A   Overcast
10:03 PM 39.2 °F 37.0 °F 37.4 °F 93% 29.85 in 2.0 mi NW 3.5 mph - N/A   Overcast
10:52 PM 39.0 °F 35.7 °F 37.9 °F 96% 29.83 in 1.0 mi Variable 4.6 mph - N/A   Overcast
11:26 PM 39.2 °F - 37.4 °F 93% 29.79 in 1.0 mi Calm Calm - N/A   Overcast
11:52 PM 39.0 °F 36.8 °F 39.0 °F 100% 29.81 in 1.0 mi NNW 3.5 mph - N/A   Overcast